HI1136 MTCH-MTCH

Flight info

Callsign HI1136
Flight time N/A
Altitude 4000
Route VFR
Aircraft SR22/L-SDGRY/S

Departure

Time 2026-04-11 20:03
Airport Cap Haitien International Airport (MTCH)

Arrival

Time N/A
Airport Cap Haitien International Airport (MTCH)
Time Latitude Longitude Altitude Speed Heading
2026-04-11 20:00 19.73739 -72.19067 14 ft 0 kts 221°
2026-04-11 20:01 19.73735 -72.19071 14 ft 9 kts 221°
2026-04-11 20:02 19.73569 -72.19242 14 ft 54 kts 242°
2026-04-11 20:02 19.73211 -72.19565 29 ft 82 kts 223°
2026-04-11 20:02 19.72723 -72.19945 126 ft 92 kts 225°
2026-04-11 20:02 19.72219 -72.20362 334 ft 91 kts 224°
2026-04-11 20:03 19.71700 -72.20781 497 ft 96 kts 224°
2026-04-11 20:03 19.71098 -72.21117 699 ft 99 kts 208°
2026-04-11 20:03 19.70411 -72.21343 833 ft 109 kts 197°
2026-04-11 20:03 19.69602 -72.21416 946 ft 121 kts 186°
2026-04-11 20:04 19.68772 -72.21409 1178 ft 118 kts 181°
2026-04-11 20:04 19.68223 -72.21332 1316 ft 119 kts 175°
2026-04-11 20:04 19.67383 -72.21268 1466 ft 123 kts 180°
2026-04-11 20:04 19.66511 -72.21261 1604 ft 128 kts 182°
2026-04-11 20:05 19.65603 -72.21278 1739 ft 131 kts 184°
2026-04-11 20:05 19.64680 -72.21310 1871 ft 134 kts 184°
2026-04-11 20:05 19.63738 -72.21350 2006 ft 136 kts 184°
2026-04-11 20:05 19.62815 -72.21399 2235 ft 130 kts 185°
2026-04-11 20:06 19.61928 -72.21468 2472 ft 125 kts 187°
2026-04-11 20:06 19.61075 -72.21548 2710 ft 121 kts 187°
2026-04-11 20:06 19.60246 -72.21631 2950 ft 118 kts 187°
2026-04-11 20:06 19.59439 -72.21713 3190 ft 115 kts 187°
2026-04-11 20:07 19.58648 -72.21792 3429 ft 113 kts 187°
2026-04-11 20:07 19.57849 -72.21864 3588 ft 119 kts 186°
2026-04-11 20:07 19.57001 -72.21918 3730 ft 124 kts 184°
2026-04-11 20:07 19.56131 -72.21960 3865 ft 129 kts 183°
2026-04-11 20:08 19.55214 -72.22000 4000 ft 133 kts 183°
2026-04-11 20:08 19.54274 -72.22042 4133 ft 136 kts 183°
2026-04-11 20:08 19.53319 -72.22086 4263 ft 139 kts 183°
2026-04-11 20:08 19.52348 -72.22135 4392 ft 140 kts 183°
2026-04-11 20:09 19.51368 -72.22189 4520 ft 142 kts 183°
2026-04-11 20:09 19.50385 -72.22245 4646 ft 143 kts 183°
2026-04-11 20:09 19.49399 -72.22305 4782 ft 142 kts 183°
2026-04-11 20:09 19.48424 -72.22374 5017 ft 135 kts 184°
2026-04-11 20:10 19.47503 -72.22457 5254 ft 130 kts 185°
2026-04-11 20:10 19.47213 -72.22486 5330 ft 129 kts 185°
2026-04-11 20:11 19.44128 -72.22817 6207 ft 115 kts 185°
2026-04-11 20:11 19.43342 -72.22899 6446 ft 112 kts 185°
2026-04-11 20:11 19.42576 -72.22978 6685 ft 109 kts 185°
2026-04-11 20:11 19.41827 -72.23054 6925 ft 106 kts 184°
2026-04-11 20:12 19.41071 -72.23124 7053 ft 116 kts 183°
2026-04-11 20:12 19.40216 -72.23164 7092 ft 130 kts 180°
2026-04-11 20:12 19.39269 -72.23179 7118 ft 142 kts 179°
2026-04-11 20:12 19.38251 -72.23188 7133 ft 150 kts 179°
2026-04-11 20:13 19.37197 -72.23201 7142 ft 156 kts 180°
2026-04-11 20:13 19.36094 -72.23223 7148 ft 161 kts 180°
2026-04-11 20:13 19.34965 -72.23255 7153 ft 164 kts 181°
2026-04-11 20:13 19.33813 -72.23297 7155 ft 166 kts 181°
2026-04-11 20:14 19.32651 -72.23349 7154 ft 168 kts 182°
2026-04-11 20:14 19.31461 -72.23407 7055 ft 174 kts 182°
2026-04-11 20:14 19.30272 -72.23463 7052 ft 172 kts 182°
2026-04-11 20:14 19.29079 -72.23529 7051 ft 171 kts 182°
2026-04-11 20:15 19.27889 -72.23604 7051 ft 171 kts 183°
2026-04-11 20:15 19.26715 -72.23685 7050 ft 170 kts 183°
2026-04-11 20:15 19.25520 -72.23770 7050 ft 170 kts 183°
2026-04-11 20:15 19.24338 -72.23856 7050 ft 170 kts 183°
2026-04-11 20:16 19.23162 -72.23942 7050 ft 170 kts 183°
2026-04-11 20:16 19.21981 -72.24028 7049 ft 170 kts 183°
2026-04-11 20:16 19.20801 -72.24115 7049 ft 170 kts 183°
2026-04-11 20:16 19.19619 -72.24201 7049 ft 170 kts 183°
2026-04-11 20:17 19.18440 -72.24287 7049 ft 170 kts 183°
2026-04-11 20:17 19.17260 -72.24373 7049 ft 170 kts 183°
2026-04-11 20:17 19.16081 -72.24458 7049 ft 170 kts 183°
2026-04-11 20:17 19.14900 -72.24544 7049 ft 170 kts 183°
2026-04-11 20:18 19.13721 -72.24629 7049 ft 170 kts 183°
2026-04-11 20:18 19.12557 -72.24714 7049 ft 170 kts 183°
2026-04-11 20:18 19.11377 -72.24799 7049 ft 170 kts 183°
2026-04-11 20:18 19.10197 -72.24885 7049 ft 170 kts 183°
2026-04-11 20:19 19.09015 -72.24971 7049 ft 170 kts 183°
2026-04-11 20:19 19.07836 -72.25056 7049 ft 170 kts 183°
2026-04-11 20:19 19.06659 -72.25142 7050 ft 170 kts 183°
2026-04-11 20:19 19.05477 -72.25228 7050 ft 170 kts 183°
2026-04-11 20:20 19.04298 -72.25313 7050 ft 170 kts 183°
2026-04-11 20:20 19.03115 -72.25399 7050 ft 170 kts 183°
2026-04-11 20:20 19.01951 -72.25484 7050 ft 170 kts 183°
2026-04-11 20:20 19.00773 -72.25570 7050 ft 170 kts 183°
2026-04-11 20:21 18.99592 -72.25656 7050 ft 170 kts 183°
2026-04-11 20:21 18.98414 -72.25742 7050 ft 170 kts 183°
2026-04-11 20:21 18.97230 -72.25828 7050 ft 170 kts 183°
2026-04-11 20:21 18.96050 -72.25914 7050 ft 170 kts 183°
2026-04-11 20:22 18.94871 -72.26001 7050 ft 170 kts 183°
2026-04-11 20:22 18.93691 -72.26087 7050 ft 170 kts 183°
2026-04-11 20:22 18.92513 -72.26174 7050 ft 170 kts 183°
2026-04-11 20:22 18.91334 -72.26260 7050 ft 170 kts 183°
2026-04-11 20:23 18.90153 -72.26347 7050 ft 170 kts 183°
2026-04-11 20:23 18.88971 -72.26434 7050 ft 170 kts 183°
2026-04-11 20:23 18.87807 -72.26520 7050 ft 170 kts 183°
2026-04-11 20:23 18.86614 -72.26609 7050 ft 170 kts 183°
2026-04-11 20:24 18.85434 -72.26696 7050 ft 170 kts 183°
2026-04-11 20:24 18.84256 -72.26784 7050 ft 170 kts 183°
2026-04-11 20:24 18.83075 -72.26872 7050 ft 170 kts 183°
2026-04-11 20:24 18.81910 -72.26959 7050 ft 170 kts 183°
2026-04-11 20:25 18.80730 -72.27048 7050 ft 170 kts 183°
2026-04-11 20:25 18.79550 -72.27137 7050 ft 170 kts 183°
2026-04-11 20:25 18.78370 -72.27227 7048 ft 170 kts 183°
2026-04-11 20:25 18.77160 -72.27362 6825 ft 182 kts 193°
2026-04-11 20:26 18.76012 -72.27987 6591 ft 189 kts 214°
2026-04-11 20:26 18.74939 -72.28819 6345 ft 194 kts 217°
2026-04-11 20:26 18.73882 -72.29683 6094 ft 188 kts 218°
2026-04-11 20:26 18.72877 -72.30512 5842 ft 182 kts 218°
2026-04-11 20:27 18.71889 -72.31323 5582 ft 167 kts 218°
2026-04-11 20:27 18.71035 -72.32021 5314 ft 145 kts 218°
2026-04-11 20:27 18.70267 -72.32642 4995 ft 135 kts 218°
2026-04-11 20:27 18.69533 -72.33228 4622 ft 135 kts 218°
2026-04-11 20:28 18.68769 -72.33832 4250 ft 136 kts 218°
2026-04-11 20:28 18.68017 -72.34420 3874 ft 133 kts 218°
2026-04-11 20:28 18.67196 -72.34856 3496 ft 133 kts 196°
2026-04-11 20:28 18.66296 -72.35041 3126 ft 131 kts 191°
2026-04-11 20:29 18.65396 -72.35193 2751 ft 131 kts 191°
2026-04-11 20:29 18.64495 -72.35338 2376 ft 135 kts 191°
2026-04-11 20:29 18.63500 -72.35500 2014 ft 152 kts 191°
2026-04-11 20:29 18.62414 -72.35678 1678 ft 160 kts 191°
2026-04-11 20:30 18.61357 -72.35847 1661 ft 146 kts 190°
2026-04-11 20:30 18.60411 -72.35747 1662 ft 139 kts 160°
2026-04-11 20:30 18.59661 -72.35111 1521 ft 143 kts 124°
2026-04-11 20:30 18.59159 -72.34203 1370 ft 140 kts 119°
2026-04-11 20:31 18.58705 -72.33360 1164 ft 127 kts 117°
2026-04-11 20:31 18.58311 -72.32567 926 ft 120 kts 116°
2026-04-11 20:31 18.57959 -72.31790 642 ft 117 kts 108°
2026-04-11 20:31 18.57829 -72.30990 419 ft 107 kts 87°
2026-04-11 20:32 18.57854 -72.30469 239 ft 104 kts 81°
2026-04-11 20:32 18.57907 -72.29776 131 ft 85 kts 81°
2026-04-11 20:32 18.57950 -72.29277 125 ft 46 kts 82°
2026-04-11 20:32 18.57961 -72.29046 125 ft 22 kts 86°
2026-04-11 20:33 18.57969 -72.28873 125 ft 34 kts 85°
2026-04-11 20:33 18.57987 -72.28632 125 ft 35 kts 84°
2026-04-11 20:33 18.57995 -72.28418 125 ft 21 kts 115°
2026-04-11 20:33 18.57927 -72.28383 125 ft 5 kts 174°
2026-04-11 20:34 18.57885 -72.28379 125 ft 13 kts 175°
2026-04-11 20:34 18.57754 -72.28368 125 ft 13 kts 169°
2026-04-11 20:34 18.57727 -72.28344 125 ft 1 kts 128°
2026-04-11 20:34 18.57709 -72.28320 125 ft 2 kts 126°
2026-04-11 20:35 18.57708 -72.28319 125 ft 0 kts 126°